GLD1744 SBCG-SSHA

Flight info

Callsign GLD1744
Flight time 0h 58m
Altitude 4500
Route DCT 2044S05432W REA DCT 2029S05546W
Aircraft C152/L-SDFGIRY/S

Departure

Time 2026-04-30 06:28
Airport Campo Grande Airport (SBCG)

Arrival

Time 2026-04-30 07:26
Airport Aeroclube de Aquidauana Airport (SSHA)
Time Latitude Longitude Altitude Speed Heading
2026-04-30 06:06 -20.45814 -54.67184 1835 ft 0 kts 132°
2026-04-30 06:12 -20.45859 -54.67154 1835 ft 11 kts 165°
2026-04-30 06:12 -20.45931 -54.67141 1834 ft 11 kts 185°
2026-04-30 06:13 -20.46013 -54.67134 1834 ft 12 kts 173°
2026-04-30 06:13 -20.46103 -54.67123 1833 ft 14 kts 169°
2026-04-30 06:13 -20.46204 -54.67111 1832 ft 15 kts 174°
2026-04-30 06:13 -20.46305 -54.67097 1831 ft 14 kts 168°
2026-04-30 06:14 -20.46341 -54.67028 1831 ft 13 kts 45°
2026-04-30 06:14 -20.46273 -54.66961 1833 ft 14 kts 43°
2026-04-30 06:14 -20.46235 -54.66922 1833 ft 5 kts 39°
2026-04-30 06:14 -20.46196 -54.66884 1834 ft 9 kts 40°
2026-04-30 06:15 -20.46145 -54.66836 1835 ft 11 kts 39°
2026-04-30 06:15 -20.46084 -54.66779 1836 ft 13 kts 42°
2026-04-30 06:15 -20.46015 -54.66711 1837 ft 14 kts 48°
2026-04-30 06:15 -20.46045 -54.66637 1838 ft 13 kts 162°
2026-04-30 06:16 -20.46060 -54.66632 1838 ft 0 kts 156°
2026-04-30 06:26 -20.46077 -54.66624 1838 ft 8 kts 158°
2026-04-30 06:26 -20.46153 -54.66593 1837 ft 12 kts 187°
2026-04-30 06:26 -20.46216 -54.66641 1835 ft 22 kts 207°
2026-04-30 06:27 -20.46420 -54.66867 1835 ft 59 kts 236°
2026-04-30 06:27 -20.46716 -54.67158 1874 ft 63 kts 200°
2026-04-30 06:27 -20.47052 -54.67458 2031 ft 64 kts 209°
2026-04-30 06:27 -20.47410 -54.67777 2168 ft 67 kts 209°
2026-04-30 06:28 -20.47760 -54.68129 2332 ft 72 kts 216°
2026-04-30 06:28 -20.48157 -54.68505 2401 ft 79 kts 186°
2026-04-30 06:28 -20.48693 -54.68431 2474 ft 80 kts 165°
2026-04-30 06:28 -20.49236 -54.68281 2553 ft 81 kts 159°
2026-04-30 06:29 -20.49770 -54.68081 2624 ft 82 kts 158°
2026-04-30 06:29 -20.50289 -54.67840 2689 ft 81 kts 151°
2026-04-30 06:29 -20.50759 -54.67510 2769 ft 81 kts 144°
2026-04-30 06:29 -20.51209 -54.67147 2852 ft 81 kts 143°
2026-04-30 06:30 -20.51663 -54.66781 2930 ft 82 kts 144°
2026-04-30 06:30 -20.52173 -54.66474 2975 ft 87 kts 152°
2026-04-30 06:30 -20.52735 -54.66199 2990 ft 90 kts 155°
2026-04-30 06:30 -20.53329 -54.65955 3000 ft 92 kts 153°
2026-04-30 06:31 -20.53827 -54.65557 2996 ft 90 kts 136°
2026-04-30 06:31 -20.54267 -54.65075 2997 ft 91 kts 133°
2026-04-30 06:31 -20.54687 -54.64564 2996 ft 92 kts 131°
2026-04-30 06:31 -20.55101 -54.64038 2998 ft 93 kts 131°
2026-04-30 06:32 -20.55512 -54.63508 3000 ft 93 kts 130°
2026-04-30 06:32 -20.55921 -54.62975 3000 ft 93 kts 130°
2026-04-30 06:32 -20.56330 -54.62438 3001 ft 93 kts 130°
2026-04-30 06:32 -20.56738 -54.61899 2994 ft 93 kts 130°
2026-04-30 06:33 -20.57130 -54.61355 2993 ft 92 kts 123°
2026-04-30 06:33 -20.57427 -54.60755 2990 ft 90 kts 118°
2026-04-30 06:33 -20.57690 -54.60150 3005 ft 90 kts 116°
2026-04-30 06:33 -20.58055 -54.59620 3010 ft 93 kts 151°
2026-04-30 06:34 -20.58661 -54.59359 3007 ft 95 kts 154°
2026-04-30 06:34 -20.59275 -54.59097 3003 ft 95 kts 154°
2026-04-30 06:34 -20.59878 -54.58808 2997 ft 95 kts 150°
2026-04-30 06:34 -20.60463 -54.58493 2980 ft 93 kts 149°
2026-04-30 06:35 -20.61023 -54.58173 2975 ft 90 kts 149°
2026-04-30 06:35 -20.61570 -54.57856 2978 ft 89 kts 149°
2026-04-30 06:35 -20.62118 -54.57543 2989 ft 90 kts 148°
2026-04-30 06:35 -20.62673 -54.57227 3006 ft 92 kts 148°
2026-04-30 06:36 -20.63244 -54.56902 3005 ft 94 kts 148°
2026-04-30 06:36 -20.63822 -54.56572 3000 ft 95 kts 148°
2026-04-30 06:36 -20.64403 -54.56238 2994 ft 95 kts 148°
2026-04-30 06:36 -20.64986 -54.55904 2989 ft 95 kts 148°
2026-04-30 06:37 -20.65567 -54.55570 2983 ft 95 kts 149°
2026-04-30 06:37 -20.66175 -54.55292 2985 ft 95 kts 155°
2026-04-30 06:37 -20.66818 -54.55100 2981 ft 96 kts 162°
2026-04-30 06:37 -20.67474 -54.54969 2969 ft 95 kts 164°
2026-04-30 06:38 -20.68099 -54.54865 2960 ft 91 kts 165°
2026-04-30 06:38 -20.68721 -54.54752 2967 ft 91 kts 165°
2026-04-30 06:38 -20.69350 -54.54635 2981 ft 93 kts 166°
2026-04-30 06:38 -20.69993 -54.54514 2987 ft 95 kts 166°
2026-04-30 06:39 -20.70641 -54.54392 2973 ft 94 kts 166°
2026-04-30 06:39 -20.71285 -54.54268 2974 ft 94 kts 164°
2026-04-30 06:39 -20.71917 -54.54113 2971 ft 93 kts 162°
2026-04-30 06:39 -20.72540 -54.53956 2973 ft 92 kts 161°
2026-04-30 06:40 -20.73160 -54.53806 2971 ft 91 kts 161°
2026-04-30 06:40 -20.73779 -54.53667 2975 ft 93 kts 167°
2026-04-30 06:40 -20.74334 -54.54061 2973 ft 112 kts 239°
2026-04-30 06:40 -20.74563 -54.54873 2978 ft 115 kts 250°
2026-04-30 06:41 -20.74733 -54.55705 2970 ft 114 kts 252°
2026-04-30 06:41 -20.74868 -54.56522 2952 ft 110 kts 254°
2026-04-30 06:41 -20.74971 -54.57326 2959 ft 109 kts 257°
2026-04-30 06:41 -20.75061 -54.58132 2987 ft 111 kts 257°
2026-04-30 06:42 -20.75151 -54.58958 2997 ft 113 kts 258°
2026-04-30 06:42 -20.75241 -54.59799 2992 ft 115 kts 258°
2026-04-30 06:42 -20.75327 -54.60643 2977 ft 113 kts 258°
2026-04-30 06:42 -20.75412 -54.61465 2969 ft 113 kts 258°
2026-04-30 06:43 -20.75520 -54.62291 2979 ft 112 kts 253°
2026-04-30 06:43 -20.75684 -54.63111 2980 ft 113 kts 250°
2026-04-30 06:43 -20.75870 -54.63918 2977 ft 111 kts 250°
2026-04-30 06:43 -20.76061 -54.64710 2970 ft 109 kts 249°
2026-04-30 06:44 -20.76258 -54.65502 2979 ft 112 kts 249°
2026-04-30 06:44 -20.76462 -54.66314 2985 ft 114 kts 249°
2026-04-30 06:44 -20.76672 -54.67132 2964 ft 112 kts 249°
2026-04-30 06:44 -20.76868 -54.67924 2957 ft 108 kts 248°
2026-04-30 06:45 -20.77051 -54.68704 2964 ft 108 kts 249°
2026-04-30 06:45 -20.77254 -54.69484 2975 ft 111 kts 249°
2026-04-30 06:45 -20.77468 -54.70277 2982 ft 111 kts 249°
2026-04-30 06:45 -20.77679 -54.71072 2976 ft 111 kts 248°
2026-04-30 06:46 -20.77877 -54.71864 2964 ft 110 kts 248°
2026-04-30 06:46 -20.78077 -54.72643 2967 ft 108 kts 249°
2026-04-30 06:46 -20.78280 -54.73402 2968 ft 108 kts 249°
2026-04-30 06:46 -20.78486 -54.74172 2976 ft 108 kts 248°
2026-04-30 06:47 -20.78686 -54.74949 2976 ft 110 kts 248°
2026-04-30 06:47 -20.78890 -54.75746 2986 ft 113 kts 248°
2026-04-30 06:47 -20.79096 -54.76561 2973 ft 114 kts 248°
2026-04-30 06:47 -20.79299 -54.77360 2957 ft 110 kts 248°
2026-04-30 06:48 -20.79490 -54.78136 2951 ft 107 kts 248°
2026-04-30 06:48 -20.79689 -54.78912 2978 ft 110 kts 248°
2026-04-30 06:48 -20.79901 -54.79718 2986 ft 115 kts 248°
2026-04-30 06:48 -20.80119 -54.80540 2959 ft 115 kts 248°
2026-04-30 06:49 -20.80321 -54.81353 2947 ft 111 kts 248°
2026-04-30 06:49 -20.80513 -54.82146 2944 ft 110 kts 248°
2026-04-30 06:49 -20.80709 -54.82940 2975 ft 112 kts 248°
2026-04-30 06:49 -20.80841 -54.83773 2978 ft 119 kts 275°
2026-04-30 06:50 -20.80607 -54.84620 2971 ft 118 kts 283°
2026-04-30 06:50 -20.80356 -54.85444 2948 ft 116 kts 284°
2026-04-30 06:50 -20.80090 -54.86262 2965 ft 118 kts 286°
2026-04-30 06:50 -20.79819 -54.87101 2961 ft 121 kts 286°
2026-04-30 06:51 -20.79538 -54.87956 2989 ft 122 kts 286°
2026-04-30 06:51 -20.79257 -54.88808 2972 ft 121 kts 286°
2026-04-30 06:51 -20.78974 -54.89648 2969 ft 119 kts 286°
2026-04-30 06:51 -20.78694 -54.90470 2951 ft 117 kts 286°
2026-04-30 06:52 -20.78418 -54.91283 2948 ft 116 kts 286°
2026-04-30 06:52 -20.78169 -54.92100 2971 ft 116 kts 282°
2026-04-30 06:52 -20.77962 -54.92930 2978 ft 118 kts 280°
2026-04-30 06:52 -20.77765 -54.93796 2974 ft 120 kts 279°
2026-04-30 06:53 -20.77587 -54.94666 2951 ft 119 kts 278°
2026-04-30 06:53 -20.77474 -54.95239 2934 ft 118 kts 277°
2026-04-30 06:53 -20.77256 -54.96357 2927 ft 113 kts 277°
2026-04-30 06:53 -20.77097 -54.97182 2951 ft 114 kts 277°
2026-04-30 06:54 -20.76945 -54.98022 2947 ft 115 kts 275°
2026-04-30 06:54 -20.76839 -54.98868 2949 ft 115 kts 272°
2026-04-30 06:54 -20.76750 -54.99717 2946 ft 114 kts 271°
2026-04-30 06:54 -20.76667 -55.00566 2951 ft 115 kts 271°
2026-04-30 06:55 -20.76591 -55.01415 2929 ft 114 kts 270°
2026-04-30 06:55 -20.76518 -55.02238 2938 ft 112 kts 270°
2026-04-30 06:55 -20.76442 -55.03062 2943 ft 111 kts 271°
2026-04-30 06:55 -20.76384 -55.03890 2957 ft 113 kts 271°
2026-04-30 06:56 -20.76330 -55.04730 2959 ft 114 kts 271°
2026-04-30 06:56 -20.76261 -55.05575 2949 ft 114 kts 271°
2026-04-30 06:56 -20.76169 -55.06414 2938 ft 113 kts 272°
2026-04-30 06:56 -20.76072 -55.07237 2935 ft 111 kts 273°
2026-04-30 06:57 -20.75970 -55.08054 2944 ft 111 kts 274°
2026-04-30 06:57 -20.75878 -55.08876 2951 ft 112 kts 273°
2026-04-30 06:57 -20.75779 -55.09707 2961 ft 113 kts 273°
2026-04-30 06:57 -20.75679 -55.10550 2960 ft 115 kts 274°
2026-04-30 06:58 -20.75580 -55.11397 2936 ft 114 kts 273°
2026-04-30 06:58 -20.75479 -55.12230 2943 ft 113 kts 273°
2026-04-30 06:58 -20.75376 -55.13061 2940 ft 113 kts 273°
2026-04-30 06:58 -20.75275 -55.13893 2945 ft 114 kts 273°
2026-04-30 06:59 -20.75171 -55.14737 2942 ft 115 kts 273°
2026-04-30 06:59 -20.75074 -55.15586 2939 ft 115 kts 272°
2026-04-30 06:59 -20.74978 -55.16431 2953 ft 115 kts 272°
2026-04-30 06:59 -20.74890 -55.17281 2961 ft 116 kts 273°
2026-04-30 07:00 -20.74807 -55.18135 2949 ft 116 kts 271°
2026-04-30 07:00 -20.74705 -55.18992 2942 ft 117 kts 272°
2026-04-30 07:00 -20.74608 -55.19849 2948 ft 116 kts 272°
2026-04-30 07:00 -20.74520 -55.20706 2942 ft 116 kts 272°
2026-04-30 07:01 -20.74428 -55.21557 2940 ft 115 kts 272°
2026-04-30 07:01 -20.74326 -55.22396 2941 ft 116 kts 272°
2026-04-30 07:01 -20.74223 -55.23247 2942 ft 115 kts 273°
2026-04-30 07:01 -20.74182 -55.23602 2939 ft 115 kts 272°
2026-04-30 07:02 -20.74119 -55.24176 2950 ft 116 kts 272°
2026-04-30 07:02 -20.74025 -55.25034 2950 ft 117 kts 272°
2026-04-30 07:02 -20.73936 -55.25894 2936 ft 117 kts 272°
2026-04-30 07:02 -20.73852 -55.26747 2929 ft 114 kts 272°
2026-04-30 07:03 -20.73758 -55.27584 2936 ft 113 kts 272°
2026-04-30 07:03 -20.73662 -55.28420 2942 ft 114 kts 272°
2026-04-30 07:03 -20.73575 -55.29264 2949 ft 115 kts 272°
2026-04-30 07:03 -20.73495 -55.30111 2931 ft 114 kts 272°
2026-04-30 07:04 -20.73417 -55.30950 2942 ft 113 kts 286°
2026-04-30 07:04 -20.73295 -55.31766 2948 ft 113 kts 275°
2026-04-30 07:04 -20.73179 -55.32604 2958 ft 115 kts 274°
2026-04-30 07:04 -20.72930 -55.33415 2943 ft 117 kts 295°
2026-04-30 07:05 -20.72211 -55.34956 2922 ft 113 kts 294°
2026-04-30 07:05 -20.71864 -55.35712 2928 ft 113 kts 297°
2026-04-30 07:05 -20.71450 -55.36433 2956 ft 115 kts 302°
2026-04-30 07:06 -20.71005 -55.37141 2960 ft 117 kts 303°
2026-04-30 07:06 -20.70548 -55.37868 2944 ft 119 kts 300°
2026-04-30 07:06 -20.70121 -55.38616 2952 ft 118 kts 300°
2026-04-30 07:06 -20.69721 -55.39379 2988 ft 116 kts 299°
2026-04-30 07:07 -20.69329 -55.40148 2920 ft 120 kts 297°
2026-04-30 07:07 -20.68926 -55.40927 2883 ft 118 kts 300°
2026-04-30 07:07 -20.68527 -55.41664 2936 ft 112 kts 300°
2026-04-30 07:07 -20.68152 -55.42382 2973 ft 112 kts 297°
2026-04-30 07:08 -20.67751 -55.43136 2938 ft 117 kts 299°
2026-04-30 07:08 -20.67337 -55.43877 2958 ft 116 kts 301°
2026-04-30 07:08 -20.66926 -55.44627 2901 ft 121 kts 296°
2026-04-30 07:08 -20.66494 -55.45408 2843 ft 122 kts 306°
2026-04-30 07:09 -20.66039 -55.46131 2919 ft 113 kts 303°
2026-04-30 07:09 -20.65625 -55.46844 2914 ft 114 kts 300°
2026-04-30 07:09 -20.65235 -55.47556 2982 ft 111 kts 300°
2026-04-30 07:09 -20.64844 -55.48268 3022 ft 110 kts 301°
2026-04-30 07:10 -20.64442 -55.48965 3035 ft 112 kts 301°
2026-04-30 07:10 -20.64025 -55.49686 2972 ft 118 kts 301°
2026-04-30 07:10 -20.63587 -55.50416 2936 ft 115 kts 303°
2026-04-30 07:10 -20.63147 -55.51114 2941 ft 113 kts 304°
2026-04-30 07:11 -20.62741 -55.51817 2968 ft 108 kts 298°
2026-04-30 07:11 -20.62343 -55.52481 2998 ft 110 kts 301°
2026-04-30 07:11 -20.61961 -55.53192 3037 ft 110 kts 298°
2026-04-30 07:11 -20.61548 -55.53891 3046 ft 114 kts 304°
2026-04-30 07:12 -20.61063 -55.54574 3003 ft 116 kts 306°
2026-04-30 07:12 -20.60514 -55.55169 3019 ft 114 kts 322°
2026-04-30 07:12 -20.59980 -55.55746 3148 ft 107 kts 306°
2026-04-30 07:12 -20.59515 -55.56417 3112 ft 114 kts 303°
2026-04-30 07:13 -20.59136 -55.57117 3196 ft 109 kts 298°
2026-04-30 07:13 -20.58720 -55.57825 3137 ft 116 kts 303°
2026-04-30 07:13 -20.58263 -55.58556 3068 ft 117 kts 301°
2026-04-30 07:13 -20.57880 -55.59281 3151 ft 111 kts 300°
2026-04-30 07:14 -20.57438 -55.60014 3055 ft 121 kts 305°
2026-04-30 07:14 -20.56951 -55.60745 3057 ft 118 kts 306°
2026-04-30 07:14 -20.56630 -55.61200 3080 ft 115 kts 307°
2026-04-30 07:14 -20.56013 -55.62108 3062 ft 114 kts 304°
2026-04-30 07:15 -20.55711 -55.62574 3103 ft 111 kts 303°
2026-04-30 07:15 -20.55191 -55.63513 3119 ft 112 kts 299°
2026-04-30 07:15 -20.54817 -55.64235 3157 ft 111 kts 297°
2026-04-30 07:15 -20.54585 -55.64714 3192 ft 106 kts 296°
2026-04-30 07:16 -20.54244 -55.65433 3110 ft 110 kts 296°
2026-04-30 07:16 -20.53879 -55.66144 3032 ft 114 kts 297°
2026-04-30 07:16 -20.53493 -55.66917 2792 ft 117 kts 295°
2026-04-30 07:16 -20.53110 -55.67696 2578 ft 119 kts 296°
2026-04-30 07:17 -20.52761 -55.68485 2453 ft 118 kts 295°
2026-04-30 07:17 -20.52257 -55.69538 2255 ft 119 kts 297°
2026-04-30 07:17 -20.51632 -55.70768 2291 ft 111 kts 299°
2026-04-30 07:18 -20.51244 -55.71495 2224 ft 116 kts 299°
2026-04-30 07:18 -20.50840 -55.72241 2222 ft 114 kts 303°
2026-04-30 07:18 -20.50430 -55.72964 2192 ft 114 kts 304°
2026-04-30 07:18 -20.49994 -55.73673 2168 ft 114 kts 302°
2026-04-30 07:19 -20.49569 -55.74391 2138 ft 114 kts 303°
2026-04-30 07:19 -20.49135 -55.75106 2090 ft 115 kts 306°
2026-04-30 07:19 -20.48684 -55.75806 2069 ft 115 kts 306°
2026-04-30 07:19 -20.48163 -55.76458 2083 ft 115 kts 320°
2026-04-30 07:20 -20.47576 -55.77000 2073 ft 110 kts 322°
2026-04-30 07:20 -20.47026 -55.77618 1953 ft 118 kts 304°
2026-04-30 07:20 -20.46808 -55.78428 1900 ft 114 kts 267°
2026-04-30 07:20 -20.47005 -55.79214 1803 ft 106 kts 230°
2026-04-30 07:21 -20.47533 -55.79736 1690 ft 104 kts 211°
2026-04-30 07:21 -20.48133 -55.80019 1634 ft 89 kts 171°
2026-04-30 07:21 -20.48588 -55.79687 1614 ft 81 kts 118°
2026-04-30 07:21 -20.48814 -55.79141 1610 ft 78 kts 116°
2026-04-30 07:22 -20.49290 -55.78081 1580 ft 78 kts 113°
2026-04-30 07:22 -20.49465 -55.77561 1599 ft 73 kts 112°
2026-04-30 07:22 -20.49615 -55.77050 1621 ft 69 kts 99°
2026-04-30 07:23 -20.49517 -55.76530 1658 ft 76 kts 73°
2026-04-30 07:23 -20.49323 -55.76029 1723 ft 75 kts 75°
2026-04-30 07:23 -20.49075 -55.75500 1647 ft 82 kts 69°
2026-04-30 07:23 -20.48814 -55.74992 1673 ft 74 kts 69°
2026-04-30 07:24 -20.48533 -55.74543 1647 ft 73 kts 60°
2026-04-30 07:24 -20.48237 -55.74109 1619 ft 64 kts 62°
2026-04-30 07:24 -20.47971 -55.73724 1549 ft 65 kts 65°
2026-04-30 07:24 -20.47587 -55.73458 1494 ft 75 kts
2026-04-30 07:25 -20.47116 -55.73772 1439 ft 83 kts 322°
2026-04-30 07:25 -20.46792 -55.74258 1359 ft 81 kts 286°
2026-04-30 07:25 -20.46829 -55.74847 1168 ft 84 kts 243°
2026-04-30 07:25 -20.47092 -55.75366 1008 ft 76 kts 238°
2026-04-30 07:26 -20.47347 -55.75858 782 ft 76 kts 234°
2026-04-30 07:26 -20.47647 -55.76304 563 ft 70 kts 233°
2026-04-30 07:26 -20.47870 -55.76653 517 ft 40 kts 236°
2026-04-30 07:26 -20.48017 -55.76869 515 ft 32 kts 230°
2026-04-30 07:27 -20.48120 -55.77008 516 ft 15 kts 232°
2026-04-30 07:27 -20.48179 -55.77062 515 ft 6 kts 155°
2026-04-30 07:27 -20.48211 -55.77046 515 ft 3 kts 210°
2026-04-30 07:27 -20.48211 -55.77055 515 ft 0 kts 321°